アトラス彗星

C/2022 Q2 ( ATLAS )

English version
Home page
Updated on October 14, 2023

---------------------------------------------------------------------

・ プロフィール

発見日 2022年8月27日
発見光度 19.0等
発見者 Asteroid Terrestrial-Impact Last Alert System (ATLAS) search program

・ 写真集

・ 軌道要素

Epoch 2023 Feb. 25.0 TT = JDT 2460000.5
T 2023 Jan. 31.59204 TT                                 Rudenko
q   1.6441549            (2000.0)            P               Q
n   0.00527234     Peri.   44.06153     +0.63807656     -0.76773613
a  32.6939155      Node   352.94313     -0.76945490     -0.63300137
e   0.9497107      Incl.  151.48595     +0.02823929     +0.09945098
P 187
>From 571 observations 2022 Aug. 27-2023 May 28, mean residual 0".5.

・ 光度変化

        m1 = 13.0 + 5 logΔ + 14.0 log r(t + 70)

        ※ 灰色の曲線は、m1 = 13.0 + 5 logΔ + 10.0 log r の光度曲線です。

---------------------------------------------------------------------

軌道要素はM.P.E.C. 2023-L37に掲載されたものです。
光度グラフはComet for Windowsで作成したものです。

---------------------------------------------------------------------

Copyright(C) Seiichi Yoshida (comet@aerith.net). All rights reserved.